Simultaneous Nadir Overpasses (SNOs) Predictions

Prediction of SNOs between NOAA-15 and METOP-C Satellite Orbit:

Table of predicted SNOs for the next 14.0 days since TLE Epoch: 10/7/2023
Index Date (NOAA-15) Time (NOAA-15) Lat,Lon (NOAA-15) SZA (NOAA-15 ) Date (METOP-C) Time (METOP-C) Lat,Lon (METOP-C) SZA (METOP-C ) Distance(km) Time Diff (sec)
1 10/07/2023 18:16:16 81.06, -55.31 88.89 10/07/2023 18:15:13 81.07, -55.35 88.87 1.56 63
2 10/07/2023 19:06:50 -81.06, 112.06 91.10 10/07/2023 19:05:54 -81.07, 111.98 91.12 2.03 56
3 10/07/2023 19:57:17 81.07, -80.68 88.91 10/07/2023 19:56:35 81.07, -80.83 88.88 2.49 42
4 10/07/2023 20:47:51 -81.06, 86.69 91.08 10/07/2023 20:47:16 -81.07, 86.50 91.11 3.15 35
5 10/07/2023 21:38:18 81.07,-106.06 88.93 10/07/2023 21:37:56 81.08,-105.93 88.94 2.33 22
6 10/07/2023 22:28:52 -81.07, 61.31 91.06 10/07/2023 22:28:37 -81.08, 61.40 91.06 1.71 15
7 10/07/2023 23:19:19 81.08,-131.43 88.95 10/07/2023 23:19:18 81.07,-131.40 88.95 0.87 1
8 10/08/2023 00:09:53 -81.08, 35.93 91.04 10/08/2023 00:09:59 -81.07, 35.93 91.05 0.61 6
9 10/08/2023 01:00:19 81.07,-156.44 88.99 10/08/2023 01:00:39 81.08,-156.50 89.00 1.90 20
10 10/08/2023 01:50:53 -81.06, 10.92 91.00 10/08/2023 01:51:20 -81.08, 10.83 90.99 2.29 27
11 10/08/2023 02:41:20 81.07, 178.18 89.01 10/08/2023 02:42:01 81.07, 178.02 89.01 2.79 41
12 10/08/2023 03:31:54 -81.07, -14.45 90.98 10/08/2023 03:32:42 -81.07, -14.64 90.98 3.31 48
13 10/08/2023 04:22:21 81.08, 152.81 89.03 10/08/2023 04:23:22 81.08, 152.92 89.07 2.12 61



Historial Predications of SNOs between NOAA-15 and METOP-C
